Weather History for Pellston, MI

Change the Weather History Date:

Monday, March 17, 2014

  Actual Average Record
Temperature  
Mean Temperature 8 °F -  
Max Temperature 27 °F 37 °F 80 °F (2012)
Min Temperature -11 °F 15 °F -12 °F (1959)
Degree Days  
Heating Degree Days 58    
Moisture  
Dew Point -3 °F    
Average Humidity 61    
Maximum Humidity 79    
Minimum Humidity 32    
Precipitation  
Precipitation 0.00 in - - ()
Sea Level Pressure  
Sea Level Pressure 30.09 in    
Wind  
Wind Speed 3 mph (SE)    
Max Wind Speed 12 mph    
Max Gust Speed -    
Visibility 10 miles    
Events      
Averages and records for this station are not official NWS values.
T = Trace of Precipitation, MM = Missing Value Source: NWS Daily Summary

Daily Weather History Graph

Daily Weather History Graph

Search for Another Location

Airport:

Trip Planner

Search our weather history database for the weather conditions in past years. The results will help you decide how hot, cold, wet, or windy it might be!

Date:

Astronomy

Mar. 17, 2014 Rise Set
Actual Time 7:47 AM EDT 7:47 PM EDT
Civil Twilight 7:18 AM EDT 8:17 PM EDT
Nautical Twilight 6:43 AM EDT 8:52 PM EDT
Astronomical Twilight 6:08 AM EDT 9:27 PM EDT
Moon 9:09 PM EDT (3/17) 7:59 AM EDT (3/17)
Length of Visible Light 12h 58m
Length of Day
11h 59m
Full, 99% of the Moon is Illuminated
Mar 17
Full
Mar 23
Last Quarter
Mar 30
New
Apr 7
First Quarter
Apr 15
Full

Hourly Weather History & Observations

Time (EDT) Temp. Windchill Dew Point Humidity Pressure Visibility Wind Dir Wind Speed Gust Speed Precip Events Conditions
12:54 AM -7.1 °F - -11.9 °F 79% 30.28 in 10.0 mi Calm Calm - N/A   Clear
1:54 AM -9.0 °F - -15.0 °F 75% 30.27 in 10.0 mi Calm Calm - N/A   Clear
2:54 AM -11.0 °F - -17.0 °F 75% 30.25 in 10.0 mi Calm Calm - N/A   Clear
3:54 AM -11.9 °F - -17.0 °F 78% 30.22 in 10.0 mi Calm Calm - N/A   Clear
4:54 AM -11.0 °F - -17.0 °F 75% 30.18 in 10.0 mi Calm Calm - N/A   Clear
5:54 AM -11.0 °F - -17.0 °F 75% 30.18 in 10.0 mi Calm Calm - N/A   Clear
6:54 AM -9.9 °F - -16.1 °F 74% 30.16 in 10.0 mi Calm Calm - N/A   Clear
7:54 AM -9.9 °F - -16.1 °F 74% 30.16 in 10.0 mi Calm Calm - N/A   Clear
8:54 AM -8.0 °F - -14.1 °F 75% 30.16 in 10.0 mi Calm Calm - N/A   Clear
9:54 AM 1.9 °F - -4.0 °F 76% 30.15 in 10.0 mi Calm Calm - N/A   Partly Cloudy
10:04 AM 3.9 °F - -2.0 °F 76% 30.08 in 2.0 mi Calm Calm - N/A   Haze
10:13 AM 5.0 °F -2.1 °F -2.0 °F 73% 30.08 in 10.0 mi SE 3.5 mph - N/A   Partly Cloudy
10:54 AM 10.0 °F -0.9 °F -0.9 °F 61% 30.14 in 10.0 mi SE 6.9 mph - N/A   Scattered Clouds
11:54 AM 15.1 °F 4.2 °F -0.0 °F 51% 30.10 in 10.0 mi SE 8.1 mph - N/A   Scattered Clouds
12:54 PM 19.0 °F 9.0 °F 1.0 °F 46% 30.07 in 10.0 mi ESE 8.1 mph - N/A   Clear
1:54 PM 21.9 °F 11.0 °F 1.0 °F 40% 30.04 in 10.0 mi SE 10.4 mph - N/A   Overcast
2:54 PM 24.1 °F 13.7 °F 1.0 °F 37% 30.00 in 10.0 mi SE 10.4 mph - N/A   Scattered Clouds
3:54 PM 26.1 °F 15.6 °F -0.0 °F 32% 29.99 in 10.0 mi SSE 11.5 mph - N/A   Partly Cloudy
4:54 PM 26.1 °F 17.6 °F 3.9 °F 39% 29.98 in 10.0 mi SE 8.1 mph - N/A   Overcast
5:54 PM 26.1 °F 15.6 °F 5.0 °F 41% 29.96 in 10.0 mi SE 11.5 mph - N/A   Overcast
6:54 PM 26.1 °F 18.4 °F 6.1 °F 43% 29.98 in 10.0 mi SE 6.9 mph - N/A   Overcast
7:54 PM 26.1 °F 16.8 °F 8.1 °F 47% 29.97 in 10.0 mi SE 9.2 mph - N/A   Overcast
8:54 PM 24.1 °F 14.4 °F 8.1 °F 51% 29.98 in 10.0 mi ESE 9.2 mph - N/A   Overcast
9:54 PM 21.0 °F 10.6 °F 9.0 °F 60% 29.99 in 10.0 mi ESE 9.2 mph - N/A   Overcast
10:54 PM 21.0 °F 11.4 °F 9.0 °F 60% 29.99 in 10.0 mi ESE 8.1 mph - N/A   Overcast
11:54 PM 19.9 °F 8.6 °F 9.0 °F 62% 29.99 in 10.0 mi ESE 10.4 mph - N/A   Overcast